Content
SEND FEEDBACK

Daily
Averages
Monthly
Summary
Italy

BARI, ITALY


Home > Europe > Italy
Elevation: 144 feet     Latitude: 41 08N     Longitude: 016 47E

WEATHER
 
SELECT A DAY
Number of Records: 294,846;   Date Range: 7/1/96 - 7/28/14
 
SHARE

PRINT THIS DATA

[ ← Previous Day ]
WEATHER ALMANAC - JULY 18, 2013
[ Next Day → ]
[ °C ]   °F
Weather ElementAverageHighLow
Temperature74.1 °F80.6 °F (12:20 pm)64.4 °F (3:20 am)
Dewpoint61 °F66.2 °F (3:20 pm)55.4 °F (12:50 pm)
Humidity64.7 %83 % (3:20 am)42 % (12:50 pm)
Barometer30.06 in30.09 in (10:50 am)30.04 in (4:50 pm)
Wind Speed6.4 mph12.7 mph (3:50 pm)
Weather ElementAverage
Wind DirectionESE (117.4 °)

Weather ElementTotal
Precipitation---
Cooling Degree Days7.5 (Base 65)
Growing Degree Days22.5 (Base 50)
Averaged from 47 records on July 18, 2013
WEATHER CONDITIONS BREAKOUT
WIND DIRECTION BREAKOUT
WEATHER BY HOUR - JULY 18, 2013
[ °C ]   °F
Local TimeTemperatureDewpointHumidityBarometerVisibilityWind DirectionWind SpeedGust SpeedPrecipitationEventsConditions
12:50 AM66.2 °F57.2 °F73 %30.06 inWSW (240°)4.6 mphClear
1:20 AM66.2 °F57.2 °F73 %30.06 inWSW (240°)4.6 mphClear
1:50 AM66.2 °F57.2 °F73 %30.06 inWest (260°)4.6 mphClear
2:20 AM66.2 °F57.2 °F73 %30.06 inWest (260°)5.8 mphClear
2:50 AM66.2 °F57.2 °F73 %30.06 inWest (260°)5.8 mphClear
3:20 AM64.4 °F59.0 °F83 %30.06 inVariable2.3 mphClear
3:50 AM64.4 °F57.2 °F77 %30.06 inVariable2.3 mphClear
4:20 AM64.4 °F57.2 °F77 %30.06 inSSW (210°)6.9 mphClear
4:50 AM66.2 °F59.0 °F78 %30.06 inSW (230°)6.9 mphClear
5:20 AM66.2 °F59.0 °F78 %30.06 inVariable3.5 mphClear
5:50 AM64.4 °F57.2 °F77 %30.06 inVariable1.2 mphClear
6:20 AM64.4 °F59.0 °F83 %30.06 inWest (260°)5.8 mphClear
6:50 AM68.0 °F60.8 °F78 %30.06 inWest (260°)4.6 mphClear
7:20 AM71.6 °F60.8 °F69 %30.06 inWest (270°)6.9 mphClear
7:50 AM73.4 °F60.8 °F65 %30.06 inWNW (290°)8.1 mphClear
8:20 AM75.2 °F60.8 °F61 %30.06 inNW (320°)5.8 mphClear
8:50 AM78.8 °F57.2 °F47 %30.06 inNNW (340°)5.8 mphClear
9:20 AM77.0 °F60.8 °F57 %30.06 inNorth (360°)6.9 mphClear
9:50 AM78.8 °F59.0 °F51 %30.06 inNorth (10°)8.1 mphClear
10:20 AM78.8 °F59.0 °F51 %30.06 inNorth (360°)8.1 mphClear
10:50 AM78.8 °F59.0 °F51 %30.09 inNorth (10°)9.2 mphClear
11:20 AM78.8 °F59.0 °F51 %30.09 inNorth (10°)11.5 mphClear
11:50 AM78.8 °F59.0 °F51 %30.09 inNNE (20°)10.4 mphClear
12:20 PM80.6 °F59.0 °F48 %30.09 inNNE (20°)9.2 mphClear
12:50 PM80.6 °F55.4 °F42 %30.06 inNNE (20°)10.4 mphClear
1:20 PM80.6 °F59.0 °F48 %30.06 inNNE (30°)10.4 mphClear
1:50 PM80.6 °F59.0 °F48 %30.06 inNE (50°)11.5 mphClear
2:20 PM78.8 °F62.6 °F57 %30.06 inNNE (30°)10.4 mphClear
2:50 PM78.8 °F64.4 °F61 %30.06 inNE (40°)11.5 mphClear
3:20 PM78.8 °F66.2 °F65 %30.06 inNE (40°)11.5 mphClear
3:50 PM80.6 °F64.4 °F58 %30.06 inNE (50°)12.7 mphClear
4:20 PM80.6 °F64.4 °F58 %30.06 inEast (80°)9.2 mphClear
4:50 PM80.6 °F64.4 °F58 %30.04 inEast (80°)10.4 mphClear
5:20 PM80.6 °F64.4 °F58 %30.04 inENE (70°)9.2 mphClear
5:50 PM78.8 °F64.4 °F61 %30.04 inEast (90°)9.2 mphClear
6:20 PM78.8 °F64.4 °F61 %30.04 inEast (90°)8.1 mphClear
6:50 PM78.8 °F64.4 °F61 %30.04 inEast (80°)6.9 mphClear
7:20 PM78.8 °F64.4 °F61 %30.04 inENE (70°)4.6 mphClear
7:50 PM77.0 °F64.4 °F65 %30.04 inENE (70°)4.6 mphClear
8:20 PM77.0 °F64.4 °F65 %30.04 inVariable2.3 mphClear
8:50 PM75.2 °F66.2 °F73 %30.04 inVariable1.2 mphClear
9:20 PM73.4 °F64.4 °F73 %30.04 inSE (130°)1.2 mphClear
9:50 PM73.4 °F64.4 °F73 %30.04 inCalmClear
10:20 PM73.4 °F64.4 °F73 %30.04 inCalmClear
10:50 PM71.6 °F62.6 °F73 %30.04 inCalmClear
11:20 PM69.8 °F62.6 °F78 %30.06 inWest (270°)2.3 mphClear
11:50 PM69.8 °F60.8 °F73 %30.06 inVariable2.3 mphClear
Hourly data recorded from LIBD, located miles away from Bari, Italy







STORIES FROM OUR PARTNERS